Le nostre stazioni meteo in Italia

Pubblicità
Il mio iltempo24.it
Chillingham Barns, Gran Bretagna (99196): Temperatura & dewpoint: 17.08.2017 08:00:00 - 23.08.2017 08:00:00 (BST)Chillingham Barns, Gran Bretagna (99196): visibility: 17.08.2017 08:00:00 - 23.08.2017 08:00:00 (BST)Chillingham Barns, Gran Bretagna (99196): precipitazioni: 17.08.2017 08:00:00 - 23.08.2017 08:00:00 (BST)
Data & Tempo tt [°C] td [°C] vv [km] rr [mm]
23.08.2017 08:00:00 15,2 14,7 - 0,0
23.08.2017 07:00:00 14,9 14,6 - 0,0
23.08.2017 06:00:00 14,6 14,2 - 0,0
23.08.2017 05:00:00 15,2 14,7 - 0,2
23.08.2017 04:00:00 15,0 14,5 - 0,0
23.08.2017 03:00:00 15,0 14,5 - 0,2
23.08.2017 02:00:00 15,7 14,4 - 0,0
23.08.2017 01:00:00 16,2 14,2 - 0,0
23.08.2017 00:00:00 16,2 14,3 - 0,0
22.08.2017 23:00:00 15,8 14,0 - 0,0
22.08.2017 22:00:00 15,7 13,9 - 0,0
22.08.2017 21:00:00 15,8 14,3 - 0,0
22.08.2017 20:00:00 16,3 15,1 - 0,0
22.08.2017 19:00:00 17,1 16,1 - 0,0
22.08.2017 18:00:00 17,6 15,8 - 0,0
22.08.2017 17:00:00 17,5 15,8 - 0,0
22.08.2017 16:00:00 18,3 16,0 - 0,0
22.08.2017 15:00:00 19,2 16,3 - 0,0
22.08.2017 14:00:00 18,5 15,9 - 0,0
22.08.2017 13:00:00 18,5 16,0 - 0,0
22.08.2017 12:00:00 19,3 15,3 - 0,0
22.08.2017 11:00:00 18,5 15,4 - 0,0
22.08.2017 10:00:00 18,5 15,6 - 0,0
22.08.2017 09:00:00 16,0 15,4 - 0,0
22.08.2017 08:00:00 13,7 13,5 - 0,0
22.08.2017 07:00:00 13,0 12,7 - 0,0
22.08.2017 06:00:00 13,5 13,0 - 0,0
22.08.2017 05:00:00 13,7 13,1 - 0,0
22.08.2017 04:00:00 13,8 12,9 - 0,0
22.08.2017 03:00:00 13,8 12,8 - 0,0
22.08.2017 02:00:00 14,3 13,0 - 0,0
22.08.2017 01:00:00 14,4 13,1 - 0,0
22.08.2017 00:00:00 14,7 12,8 - 0,0
21.08.2017 23:00:00 14,5 12,6 - 0,0
21.08.2017 22:00:00 14,9 12,5 - 0,0
21.08.2017 21:00:00 15,5 12,3 - 0,0
21.08.2017 20:00:00 16,1 12,2 - 0,0
21.08.2017 19:00:00 16,8 12,6 - 0,0
21.08.2017 18:00:00 17,4 12,0 - 0,0
21.08.2017 17:00:00 18,0 11,9 - 0,0
21.08.2017 16:00:00 19,0 12,4 - 0,0
21.08.2017 15:00:00 19,8 13,0 - 0,0
21.08.2017 14:00:00 19,3 10,4 - 0,0
21.08.2017 13:00:00 18,2 10,6 - 0,0
21.08.2017 12:00:00 17,9 10,9 - 0,0
21.08.2017 11:00:00 16,2 10,4 - 0,0
21.08.2017 10:00:00 14,1 11,2 - 0,0
21.08.2017 09:00:00 10,5 10,3 - 0,0
21.08.2017 08:00:00 7,0 6,9 - 0,0
21.08.2017 07:00:00 6,0 6,0 - 0,0
21.08.2017 06:00:00 4,8 4,8 - 0,0
21.08.2017 05:00:00 6,2 6,1 - 0,0
21.08.2017 04:00:00 5,9 5,9 - 0,0
21.08.2017 03:00:00 6,3 6,3 - 0,0
21.08.2017 02:00:00 6,7 6,6 - 0,0
21.08.2017 01:00:00 7,7 7,6 - 0,0
21.08.2017 00:00:00 8,2 7,9 - 0,0
20.08.2017 23:00:00 9,3 8,7 - 0,0
20.08.2017 22:00:00 10,6 9,2 - 0,0
20.08.2017 21:00:00 12,4 9,7 - 0,0
20.08.2017 20:00:00 14,1 9,9 - 0,0
20.08.2017 19:00:00 15,8 10,2 - 0,0
20.08.2017 18:00:00 16,2 10,0 - 0,0
20.08.2017 17:00:00 17,1 9,8 - 0,0
20.08.2017 16:00:00 18,4 9,5 - 0,0
20.08.2017 15:00:00 18,6 10,6 - 0,0
20.08.2017 14:00:00 18,6 10,8 - 0,0
20.08.2017 13:00:00 17,5 9,5 - 0,0
20.08.2017 12:00:00 17,6 9,5 - 0,0
20.08.2017 11:00:00 17,3 10,9 - 0,0
20.08.2017 10:00:00 16,0 10,1 - 0,0
20.08.2017 09:00:00 15,2 10,0 - 0,0
20.08.2017 08:00:00 13,8 10,3 - 0,0
20.08.2017 07:00:00 12,7 9,7 - -
20.08.2017 06:00:00 12,5 9,8 - 0,0
20.08.2017 05:00:00 11,9 9,7 - 0,0
20.08.2017 04:00:00 11,9 9,5 - 0,0
20.08.2017 03:00:00 12,4 9,5 - 0,0
20.08.2017 02:00:00 12,7 9,5 - 0,0
20.08.2017 01:00:00 13,1 9,9 - 0,0
20.08.2017 00:00:00 13,8 10,1 - 0,0
19.08.2017 23:00:00 13,9 10,2 - 0,0
19.08.2017 22:00:00 14,0 10,2 - 0,0
19.08.2017 21:00:00 14,5 10,5 - 0,0
19.08.2017 20:00:00 15,0 10,6 - 0,0
19.08.2017 19:00:00 15,1 10,7 - 0,0
19.08.2017 18:00:00 16,0 10,2 - 0,0
19.08.2017 17:00:00 17,5 11,6 - 0,0
19.08.2017 16:00:00 16,7 10,4 - 0,0
19.08.2017 15:00:00 16,0 9,7 - 0,0
19.08.2017 14:00:00 16,2 10,0 - 0,0
19.08.2017 13:00:00 17,7 9,7 - 0,0
19.08.2017 12:00:00 16,9 8,9 - 0,0
19.08.2017 11:00:00 16,4 9,4 - 0,0
19.08.2017 10:00:00 14,6 8,1 - 0,0
19.08.2017 09:00:00 14,0 8,1 - 0,0
19.08.2017 08:00:00 13,3 9,8 - 0,0
19.08.2017 07:00:00 11,3 8,2 - 0,0
19.08.2017 06:00:00 11,6 8,0 - 0,0
19.08.2017 05:00:00 11,5 8,2 - 0,0
19.08.2017 04:00:00 12,0 8,0 - 0,0
19.08.2017 03:00:00 12,3 8,6 - 0,0
19.08.2017 02:00:00 12,9 10,0 - 0,0
19.08.2017 01:00:00 13,0 10,2 - 0,0
19.08.2017 00:00:00 12,7 9,9 - 0,0
18.08.2017 23:00:00 11,9 9,2 - 0,0
18.08.2017 22:00:00 12,1 8,7 - 0,0
18.08.2017 21:00:00 12,3 8,0 - 0,0
18.08.2017 20:00:00 12,9 9,6 - 0,0
18.08.2017 19:00:00 12,4 9,5 - 1,0
18.08.2017 18:00:00 14,2 8,4 - 0,0
18.08.2017 17:00:00 14,7 8,2 - 0,0
18.08.2017 16:00:00 15,3 8,6 - 0,0
18.08.2017 15:00:00 15,9 9,1 - 0,0
18.08.2017 14:00:00 16,3 8,0 - 0,0
18.08.2017 13:00:00 16,3 8,2 - 0,0
18.08.2017 12:00:00 15,7 8,4 - 0,0
18.08.2017 11:00:00 15,7 9,7 - 0,0
18.08.2017 10:00:00 13,6 9,8 - 0,0
18.08.2017 09:00:00 14,0 10,8 - 0,0
18.08.2017 08:00:00 12,5 11,0 - 0,0
18.08.2017 07:00:00 13,1 12,4 - 0,6
18.08.2017 06:00:00 12,8 12,6 - 4,8
18.08.2017 05:00:00 12,7 11,8 - 2,0
18.08.2017 04:00:00 13,7 10,8 - 0,0
18.08.2017 03:00:00 13,9 11,2 - 0,0
18.08.2017 02:00:00 14,3 11,5 - 0,0
18.08.2017 01:00:00 14,3 11,3 - 0,0
18.08.2017 00:00:00 14,2 11,0 - 0,0
17.08.2017 23:00:00 14,6 11,6 - 0,0
17.08.2017 22:00:00 14,6 11,5 - 0,0
17.08.2017 21:00:00 14,8 10,8 - 0,0
17.08.2017 20:00:00 17,0 10,6 - 0,0
17.08.2017 19:00:00 18,4 10,9 - 0,0
17.08.2017 18:00:00 19,5 11,3 - 0,0
17.08.2017 17:00:00 20,2 9,7 - 0,0
17.08.2017 16:00:00 21,9 9,2 - 0,0
17.08.2017 15:00:00 22,4 11,6 - 0,0
17.08.2017 14:00:00 21,7 10,9 - 0,0
17.08.2017 13:00:00 20,5 10,5 - 0,0
17.08.2017 12:00:00 20,1 12,2 - 0,0
17.08.2017 11:00:00 19,4 11,3 - 0,0
17.08.2017 10:00:00 18,2 11,1 10 0,0
17.08.2017 09:00:00 17,1 12,5 - 0,0
17.08.2017 08:00:00 15,2 12,1 - 0,0

tt = Temperatura
td = dewpoint
vv = visibility
rr = precipitazioni

Stazioni seguenti

WeatherPro
AMSI
MeteoEarth